Time,TemperatureF,DewpointF,PressureIn,WindDirection,WindDirectionDegrees,WindSpeedMPH,WindSpeedGustMPH,Humidity,HourlyPrecipIn,Conditions,Clouds,dailyrainin,SoftwareType,DateUTC
2013-05-26 00:01:00,59.2,44.9,30.24,ENE,65,0.1,3.4,59,0.00,BKN,,0.00,WeatherDisplay:10.37,2013-05-26 04:01:00,
2013-05-26 00:02:00,59.2,44.9,30.23,ENE,65,3.4,3.5,59,0.00,BKN,,0.00,WeatherDisplay:10.37,2013-05-26 04:02:00,
2013-05-26 00:07:00,59.2,45.3,30.23,NE,42,0.4,1.1,60,0.00,BKN,,0.00,WeatherDisplay:10.37,2013-05-26 04:07:00,
2013-05-26 00:12:00,59.2,45.3,30.23,NNE,19,0.0,0.0,60,0.00,OVC,,0.00,WeatherDisplay:10.37,2013-05-26 04:12:00,
2013-05-26 00:17:00,59.2,45.3,30.24,North,357,0.0,0.0,60,0.00,OVC,,0.00,WeatherDisplay:10.37,2013-05-26 04:17:00,
2013-05-26 00:22:00,59.2,45.3,30.24,ESE,109,0.5,1.3,60,0.00,OVC,,0.00,WeatherDisplay:10.37,2013-05-26 04:22:00,
2013-05-26 00:27:00,59.2,45.3,30.24,NE,42,3.9,4.0,60,0.00,OVC,,0.00,WeatherDisplay:10.37,2013-05-26 04:27:00,
2013-05-26 00:32:00,59.2,45.3,30.24,NNE,19,0.0,0.0,60,0.00,OVC,,0.00,WeatherDisplay:10.37,2013-05-26 04:32:00,
2013-05-26 00:37:00,59.0,45.6,30.24,NE,42,0.0,0.0,61,0.00,OVC,,0.00,WeatherDisplay:10.37,2013-05-26 04:37:00,
2013-05-26 00:42:00,59.0,45.6,30.24,East,87,0.0,0.0,61,0.00,OVC,,0.00,WeatherDisplay:10.37,2013-05-26 04:42:00,
2013-05-26 00:47:00,58.8,45.8,30.24,NNW,335,3.6,3.6,62,0.00,OVC,,0.00,WeatherDisplay:10.37,2013-05-26 04:47:00,
2013-05-26 00:52:00,58.8,45.4,30.23,NE,42,2.5,2.5,61,0.00,OVC,,0.00,WeatherDisplay:10.37,2013-05-26 04:52:00,
2013-05-26 00:57:00,58.8,45.4,30.24,NE,42,1.5,1.6,61,0.00,OVC,,0.00,WeatherDisplay:10.37,2013-05-26 04:57:00,
2013-05-26 01:02:00,58.8,45.4,30.24,ENE,65,1.0,0.0,61,0.00,OVC,,0.00,WeatherDisplay:10.37,2013-05-26 05:02:00,
2013-05-26 01:07:00,59.0,45.6,30.24,East,87,0.6,6.0,61,0.00,OVC,,0.00,WeatherDisplay:10.37,2013-05-26 05:07:00,
2013-05-26 01:12:00,59.0,45.6,30.23,East,87,1.6,3.5,61,0.00,-RA,,0.00,WeatherDisplay:10.37,2013-05-26 05:12:00,
2013-05-26 01:17:00,58.8,45.4,30.24,East,87,0.0,0.0,61,0.00,-RA,,0.00,WeatherDisplay:10.37,2013-05-26 05:17:00,
2013-05-26 01:22:00,58.8,45.4,30.24,NE,42,0.1,2.5,61,0.00,-RA,,0.00,WeatherDisplay:10.37,2013-05-26 05:22:00,
2013-05-26 01:27:00,58.8,45.4,30.21,SE,132,1.6,6.9,61,0.00,-RA,,0.00,WeatherDisplay:10.37,2013-05-26 05:27:00,
2013-05-26 01:32:00,58.8,45.4,30.21,NNW,335,1.9,1.9,61,0.00,-RA,,0.00,WeatherDisplay:10.37,2013-05-26 05:32:00,
2013-05-26 01:37:00,58.8,45.8,30.22,ESE,109,1.6,1.6,62,0.00,-RA,,0.00,WeatherDisplay:10.37,2013-05-26 05:37:00,
2013-05-26 01:42:00,58.6,45.7,30.22,ENE,65,1.1,3.5,62,0.00,-RA,,0.00,WeatherDisplay:10.37,2013-05-26 05:42:00,
2013-05-26 01:47:00,58.3,45.7,30.23,ENE,65,0.0,0.0,63,0.00,-RA,,0.00,WeatherDisplay:10.37,2013-05-26 05:47:00,
2013-05-26 01:52:00,58.1,46.0,30.24,East,87,2.3,4.7,64,0.00,-RA,,0.00,WeatherDisplay:10.37,2013-05-26 05:52:00,
2013-05-26 01:57:00,57.9,45.8,30.22,ENE,65,0.2,2.3,64,0.00,-RA,,0.00,WeatherDisplay:10.37,2013-05-26 05:57:00,
2013-05-26 02:02:00,57.7,46.0,30.22,NE,42,2.2,2.3,65,0.00,-RA,,0.00,WeatherDisplay:10.37,2013-05-26 06:02:00,
2013-05-26 02:07:00,57.6,46.3,30.22,ESE,109,0.0,0.0,66,0.00,-RA,,0.00,WeatherDisplay:10.37,2013-05-26 06:07:00,
2013-05-26 02:12:00,57.6,46.3,30.22,NNE,19,0.0,3.5,66,0.00,-RA,,0.00,WeatherDisplay:10.37,2013-05-26 06:12:00,
2013-05-26 02:17:00,57.4,46.5,30.22,ENE,65,0.0,0.0,67,0.00,-RA,,0.00,WeatherDisplay:10.37,2013-05-26 06:17:00,
2013-05-26 02:22:00,57.4,46.5,30.22,North,357,2.1,2.3,67,0.00,-RA,,0.00,WeatherDisplay:10.37,2013-05-26 06:22:00,
2013-05-26 02:27:00,57.2,46.3,30.23,South,177,0.0,0.0,67,0.00,-RA,,0.00,WeatherDisplay:10.37,2013-05-26 06:27:00,
2013-05-26 02:32:00,57.4,46.5,30.23,NNE,19,0.0,0.0,67,0.00,-RA,,0.00,WeatherDisplay:10.37,2013-05-26 06:32:00,
2013-05-26 02:37:00,57.0,46.2,30.23,NNW,335,0.0,0.0,67,0.00,-RA,,0.00,WeatherDisplay:10.37,2013-05-26 06:37:00,
2013-05-26 02:42:00,57.0,46.2,30.23,SSE,155,2.5,3.5,67,0.00,-RA,,0.00,WeatherDisplay:10.37,2013-05-26 06:42:00,
2013-05-26 02:47:00,57.0,46.2,30.23,WNW,289,0.0,0.0,67,0.00,-RA,,0.00,WeatherDisplay:10.37,2013-05-26 06:47:00,
2013-05-26 02:52:00,57.0,46.2,30.22,East,87,0.0,0.0,67,0.00,-RA,,0.00,WeatherDisplay:10.37,2013-05-26 06:52:00,
2013-05-26 02:57:00,56.8,46.0,30.23,NE,42,2.9,3.5,67,0.00,-RA,,0.00,WeatherDisplay:10.37,2013-05-26 06:57:00,
2013-05-26 03:02:00,56.8,46.0,30.23,NE,42,0.0,0.0,67,0.00,-RA,,0.00,WeatherDisplay:10.37,2013-05-26 07:02:00,
2013-05-26 03:07:00,56.8,46.4,30.23,ENE,65,1.1,1.1,68,0.00,-RA,,0.00,WeatherDisplay:10.37,2013-05-26 07:07:00,
2013-05-26 03:12:00,56.5,46.0,30.22,ENE,65,2.5,2.5,68,0.00,OVC,,0.00,WeatherDisplay:10.37,2013-05-26 07:12:00,
2013-05-26 03:17:00,56.5,46.0,30.22,East,87,2.9,3.5,68,0.00,OVC,,0.00,WeatherDisplay:10.37,2013-05-26 07:17:00,
2013-05-26 03:22:00,56.5,46.0,30.23,ENE,65,0.0,0.0,68,0.00,OVC,,0.00,WeatherDisplay:10.37,2013-05-26 07:22:00,
2013-05-26 03:27:00,56.5,46.0,30.22,NE,42,4.5,4.6,68,0.00,OVC,,0.00,WeatherDisplay:10.37,2013-05-26 07:27:00,
2013-05-26 03:32:00,56.5,46.0,30.23,NNW,335,0.0,0.0,68,0.00,OVC,,0.00,WeatherDisplay:10.37,2013-05-26 07:32:00,
2013-05-26 03:37:00,56.5,46.0,30.23,NNE,19,0.0,0.0,68,0.00,OVC,,0.00,WeatherDisplay:10.37,2013-05-26 07:37:00,
2013-05-26 03:42:00,56.5,46.0,30.24,NE,42,0.0,2.3,68,0.00,OVC,,0.00,WeatherDisplay:10.37,2013-05-26 07:42:00,
2013-05-26 03:47:00,56.5,46.0,30.24,NE,42,4.0,4.0,68,0.00,OVC,,0.00,WeatherDisplay:10.37,2013-05-26 07:47:00,
2013-05-26 03:52:00,56.5,46.0,30.23,NE,42,0.0,0.0,68,0.00,OVC,,0.00,WeatherDisplay:10.37,2013-05-26 07:52:00,
2013-05-26 03:57:00,56.5,46.0,30.23,East,87,0.0,0.0,68,0.00,OVC,,0.00,WeatherDisplay:10.37,2013-05-26 07:57:00,
2013-05-26 04:02:00,56.5,46.0,30.24,North,357,1.3,1.3,68,0.00,OVC,,0.00,WeatherDisplay:10.37,2013-05-26 08:02:00,
2013-05-26 04:07:00,56.3,45.9,30.24,ENE,65,2.2,3.5,68,0.00,OVC,,0.00,WeatherDisplay:10.37,2013-05-26 08:07:00,
2013-05-26 04:12:00,56.3,45.9,30.24,SSE,155,0.0,0.0,68,0.00,OVC,,0.00,WeatherDisplay:10.37,2013-05-26 08:12:00,
2013-05-26 04:17:00,56.3,45.9,30.24,East,87,1.1,2.2,68,0.00,OVC,,0.00,WeatherDisplay:10.37,2013-05-26 08:17:00,
2013-05-26 04:22:00,56.3,45.9,30.24,ESE,109,0.0,0.0,68,0.00,OVC,,0.00,WeatherDisplay:10.37,2013-05-26 08:22:00,
2013-05-26 04:27:00,56.3,45.9,30.24,East,87,0.0,0.0,68,0.00,OVC,,0.00,WeatherDisplay:10.37,2013-05-26 08:27:00,
2013-05-26 04:32:00,56.1,45.7,30.24,SE,132,0.0,0.0,68,0.00,OVC,,0.00,WeatherDisplay:10.37,2013-05-26 08:32:00,
2013-05-26 04:37:00,56.1,45.7,30.24,NNW,335,0.0,0.0,68,0.00,OVC,,0.00,WeatherDisplay:10.37,2013-05-26 08:37:00,
2013-05-26 04:42:00,56.1,45.7,30.23,NW,312,1.1,1.1,68,0.00,OVC,,0.00,WeatherDisplay:10.37,2013-05-26 08:42:00,
2013-05-26 04:47:00,56.1,45.7,30.24,North,357,0.0,0.0,68,0.00,OVC,,0.00,WeatherDisplay:10.37,2013-05-26 08:47:00,
2013-05-26 04:52:00,56.1,45.7,30.24,ENE,65,1.3,3.5,68,0.00,OVC,,0.00,WeatherDisplay:10.37,2013-05-26 08:52:00,
2013-05-26 04:57:00,56.1,45.7,30.24,ENE,65,0.0,0.0,68,0.00,OVC,,0.00,WeatherDisplay:10.37,2013-05-26 08:57:00,
2013-05-26 05:02:00,56.1,45.7,30.23,ESE,109,1.1,1.1,68,0.00,OVC,,0.00,WeatherDisplay:10.37,2013-05-26 09:02:00,
2013-05-26 05:07:00,56.1,46.1,30.24,ENE,65,1.2,1.2,69,0.00,OVC,,0.00,WeatherDisplay:10.37,2013-05-26 09:07:00,
2013-05-26 05:12:00,56.1,46.1,30.24,ESE,109,0.0,1.1,69,0.00,OVC,,0.00,WeatherDisplay:10.37,2013-05-26 09:12:00,
2013-05-26 05:17:00,55.9,45.9,30.24,SE,132,0.0,0.0,69,0.00,OVC,,0.00,WeatherDisplay:10.37,2013-05-26 09:17:00,
2013-05-26 05:22:00,55.9,45.9,30.24,ENE,65,0.0,0.0,69,0.00,OVC,,0.00,WeatherDisplay:10.37,2013-05-26 09:22:00,
2013-05-26 05:27:00,55.9,45.9,30.24,WNW,289,0.0,0.0,69,0.00,OVC,,0.00,WeatherDisplay:10.37,2013-05-26 09:27:00,
2013-05-26 05:32:00,55.9,45.9,30.24,ESE,109,0.0,0.0,69,0.00,OVC,,0.00,WeatherDisplay:10.37,2013-05-26 09:32:00,
2013-05-26 05:37:00,55.9,45.9,30.24,SE,132,0.0,0.0,69,0.00,OVC,,0.00,WeatherDisplay:10.37,2013-05-26 09:37:00,
2013-05-26 05:42:00,55.9,45.9,30.24,ESE,109,0.0,0.0,69,0.00,OVC,,0.00,WeatherDisplay:10.37,2013-05-26 09:42:00,
2013-05-26 05:47:00,55.9,45.9,30.24,ESE,109,0.0,0.0,69,0.00,OVC,,0.00,WeatherDisplay:10.37,2013-05-26 09:47:00,
2013-05-26 05:52:00,55.9,45.9,30.24,ESE,109,0.0,0.0,69,0.00,OVC,,0.00,WeatherDisplay:10.37,2013-05-26 09:52:00,
2013-05-26 05:57:00,55.8,46.1,30.24,NW,312,0.0,0.0,70,0.00,OVC,,0.00,WeatherDisplay:10.37,2013-05-26 09:57:00,
2013-05-26 06:02:00,55.9,45.9,30.24,East,87,0.0,0.0,69,0.00,OVC,,0.00,WeatherDisplay:10.37,2013-05-26 10:02:00,
2013-05-26 06:07:00,55.8,46.1,30.24,NE,42,0.0,0.0,70,0.00,OVC,,0.00,WeatherDisplay:10.37,2013-05-26 10:07:00,
2013-05-26 06:12:00,55.8,46.1,30.24,SSW,199,0.0,0.0,70,0.00,-RA,,0.00,WeatherDisplay:10.37,2013-05-26 10:12:00,
2013-05-26 06:17:00,55.8,46.1,30.24,ESE,109,0.0,0.0,70,0.00,-RA,,0.00,WeatherDisplay:10.37,2013-05-26 10:17:00,
2013-05-26 06:22:00,55.8,46.1,30.25,SSW,199,0.0,0.0,70,0.00,-RA,,0.00,WeatherDisplay:10.37,2013-05-26 10:22:00,
2013-05-26 06:27:00,55.8,45.7,30.25,SSW,199,0.0,0.0,69,0.00,-RA,,0.00,WeatherDisplay:10.37,2013-05-26 10:27:00,
2013-05-26 06:32:00,55.8,46.1,30.25,SE,132,0.0,0.0,70,0.00,-RA,,0.00,WeatherDisplay:10.37,2013-05-26 10:32:00,
2013-05-26 06:37:00,55.8,46.1,30.24,South,177,0.0,0.0,70,0.00,-RA,,0.00,WeatherDisplay:10.37,2013-05-26 10:37:00,
2013-05-26 06:42:00,55.9,46.3,30.24,SE,132,0.0,0.0,70,0.00,-RA,,0.00,WeatherDisplay:10.37,2013-05-26 10:42:00,
2013-05-26 06:47:00,55.6,45.9,30.24,ESE,109,0.0,0.0,70,0.00,-RA,,0.00,WeatherDisplay:10.37,2013-05-26 10:47:00,
2013-05-26 06:52:00,55.6,46.3,30.24,WSW,245,0.0,0.0,71,0.00,-RA,,0.00,WeatherDisplay:10.37,2013-05-26 10:52:00,
2013-05-26 06:57:00,55.6,45.9,30.25,SW,222,2.5,2.5,70,0.00,-RA,,0.00,WeatherDisplay:10.37,2013-05-26 10:57:00,
2013-05-26 07:02:00,55.8,46.5,30.25,SSW,199,0.0,0.0,71,0.00,-RA,,0.00,WeatherDisplay:10.37,2013-05-26 11:02:00,
2013-05-26 07:07:00,55.6,46.3,30.24,SSE,155,0.0,0.0,71,0.00,-RA,,0.00,WeatherDisplay:10.37,2013-05-26 11:07:00,
2013-05-26 07:12:00,55.8,46.5,30.24,East,87,0.0,1.1,71,0.00,OVC,,0.00,WeatherDisplay:10.37,2013-05-26 11:12:00,
2013-05-26 07:17:00,55.8,46.9,30.24,SSE,155,0.0,0.0,72,0.00,OVC,,0.00,WeatherDisplay:10.37,2013-05-26 11:17:00,
2013-05-26 07:22:00,55.8,46.5,30.24,NE,42,1.0,2.3,71,0.00,OVC,,0.00,WeatherDisplay:10.37,2013-05-26 11:22:00,
2013-05-26 07:27:00,55.8,46.5,30.24,SSE,155,0.0,0.0,71,0.00,OVC,,0.00,WeatherDisplay:10.37,2013-05-26 11:27:00,
2013-05-26 07:32:00,55.9,47.0,30.24,South,177,0.0,0.0,72,0.00,OVC,,0.00,WeatherDisplay:10.37,2013-05-26 11:32:00,
2013-05-26 07:37:00,55.9,47.4,30.24,SE,132,0.0,0.0,73,0.00,OVC,,0.00,WeatherDisplay:10.37,2013-05-26 11:37:00,
2013-05-26 07:42:00,56.1,47.6,30.24,South,177,0.0,0.0,73,0.00,OVC,,0.00,WeatherDisplay:10.37,2013-05-26 11:42:00,
2013-05-26 07:47:00,56.1,47.6,30.24,SSW,199,2.5,2.5,73,0.00,OVC,,0.00,WeatherDisplay:10.37,2013-05-26 11:47:00,
2013-05-26 07:52:00,56.3,47.0,30.24,SW,222,1.0,1.6,71,0.00,OVC,,0.00,WeatherDisplay:10.37,2013-05-26 11:52:00,
2013-05-26 07:57:00,56.5,47.2,30.24,SSW,199,0.0,0.0,71,0.00,OVC,,0.00,WeatherDisplay:10.37,2013-05-26 11:57:00,
2013-05-26 08:02:00,56.5,47.6,30.24,ESE,109,0.0,0.0,72,0.00,OVC,,0.00,WeatherDisplay:10.37,2013-05-26 12:02:00,
2013-05-26 08:07:00,56.8,47.9,30.24,South,177,0.0,0.0,72,0.00,OVC,,0.00,WeatherDisplay:10.37,2013-05-26 12:07:00,
2013-05-26 08:12:00,57.2,48.3,30.24,NNE,19,0.0,1.1,72,0.00,OVC,,0.00,WeatherDisplay:10.37,2013-05-26 12:12:00,
2013-05-26 08:17:00,57.4,48.1,30.24,East,87,0.0,0.0,71,0.00,OVC,,0.00,WeatherDisplay:10.37,2013-05-26 12:17:00,
2013-05-26 08:22:00,57.9,48.6,30.24,West,267,0.4,1.1,71,0.00,OVC,,0.00,WeatherDisplay:10.37,2013-05-26 12:22:00,
2013-05-26 08:27:00,58.5,48.7,30.24,WSW,245,1.8,2.3,70,0.00,OVC,,0.00,WeatherDisplay:10.37,2013-05-26 12:27:00,
2013-05-26 08:32:00,58.8,49.1,30.24,NNE,19,2.5,2.5,70,0.00,OVC,,0.00,WeatherDisplay:10.37,2013-05-26 12:32:00,
2013-05-26 08:37:00,58.8,48.7,30.24,West,267,0.0,0.0,69,0.00,OVC,,0.00,WeatherDisplay:10.37,2013-05-26 12:37:00,
2013-05-26 08:42:00,59.2,48.6,30.24,SSW,199,2.5,2.5,68,0.00,OVC,,0.00,WeatherDisplay:10.37,2013-05-26 12:42:00,
2013-05-26 08:47:00,59.5,48.6,30.23,ESE,109,1.9,2.3,67,0.00,OVC,,0.00,WeatherDisplay:10.37,2013-05-26 12:47:00,
2013-05-26 08:52:00,59.7,48.7,30.24,South,177,1.3,1.3,67,0.00,OVC,,0.00,WeatherDisplay:10.37,2013-05-26 12:52:00,
2013-05-26 08:57:00,59.7,48.7,30.24,NE,42,0.0,0.0,67,0.00,OVC,,0.00,WeatherDisplay:10.37,2013-05-26 12:57:00,
2013-05-26 09:02:00,59.7,48.3,30.24,South,177,0.0,0.0,66,0.00,OVC,,0.00,WeatherDisplay:10.37,2013-05-26 13:02:00,
2013-05-26 09:07:00,60.1,48.7,30.24,SW,222,0.0,0.0,66,0.00,OVC,,0.00,WeatherDisplay:10.37,2013-05-26 13:07:00,
2013-05-26 09:12:00,60.4,49.0,30.24,SW,222,2.2,2.3,66,0.00,OVC,,0.00,WeatherDisplay:10.37,2013-05-26 13:12:00,
2013-05-26 09:17:00,60.6,48.8,30.24,SE,132,0.0,0.0,65,0.00,OVC,,0.00,WeatherDisplay:10.37,2013-05-26 13:17:00,
2013-05-26 09:22:00,61.3,49.1,30.24,SE,132,0.8,3.5,64,0.00,OVC,,0.00,WeatherDisplay:10.37,2013-05-26 13:22:00,
2013-05-26 09:27:00,61.7,49.4,30.24,SSE,155,1.6,1.6,64,0.00,OVC,,0.00,WeatherDisplay:10.37,2013-05-26 13:27:00,
2013-05-26 09:32:00,62.4,49.7,30.25,ESE,109,3.8,3.8,63,0.00,OVC,,0.00,WeatherDisplay:10.37,2013-05-26 13:32:00,
2013-05-26 09:37:00,62.8,49.6,30.25,SE,132,1.7,2.3,62,0.00,OVC,,0.00,WeatherDisplay:10.37,2013-05-26 13:37:00,
2013-05-26 09:42:00,63.0,49.3,30.25,South,177,3.1,3.5,61,0.00,OVC,,0.00,WeatherDisplay:10.37,2013-05-26 13:42:00,
2013-05-26 09:47:00,63.1,48.6,30.25,SE,132,3.1,3.5,59,0.00,OVC,,0.00,WeatherDisplay:10.37,2013-05-26 13:47:00,
2013-05-26 09:52:00,63.3,48.7,30.25,ENE,65,1.1,3.5,59,0.00,OVC,,0.00,WeatherDisplay:10.37,2013-05-26 13:52:00,
2013-05-26 09:57:00,63.7,49.1,30.25,SE,132,0.0,0.0,59,0.00,OVC,,0.00,WeatherDisplay:10.37,2013-05-26 13:57:00,
2013-05-26 10:02:00,64.6,50.4,30.25,SSW,199,2.2,2.3,60,0.00,OVC,,0.00,WeatherDisplay:10.37,2013-05-26 14:02:00,
2013-05-26 10:07:00,64.9,50.3,30.25,SW,222,0.6,2.3,59,0.00,OVC,,0.00,WeatherDisplay:10.37,2013-05-26 14:07:00,
2013-05-26 10:12:00,65.5,50.3,30.26,SSW,199,2.7,2.7,58,0.00,OVC,,0.00,WeatherDisplay:10.37,2013-05-26 14:12:00,
2013-05-26 10:17:00,65.8,50.2,30.26,SSW,199,2.9,3.8,57,0.00,OVC,,0.00,WeatherDisplay:10.37,2013-05-26 14:17:00,
2013-05-26 10:22:00,66.0,50.3,30.25,SSE,155,4.6,4.9,57,0.00,OVC,,0.00,WeatherDisplay:10.37,2013-05-26 14:22:00,
2013-05-26 10:27:00,66.0,49.9,30.25,NNW,335,0.0,5.8,56,0.00,OVC,,0.00,WeatherDisplay:10.37,2013-05-26 14:27:00,
2013-05-26 10:32:00,66.4,50.7,30.25,WSW,245,2.3,2.3,57,0.00,OVC,,0.00,WeatherDisplay:10.37,2013-05-26 14:32:00,
2013-05-26 10:37:00,66.9,51.2,30.25,SSW,199,2.9,3.8,57,0.00,OVC,,0.00,WeatherDisplay:10.37,2013-05-26 14:37:00,
2013-05-26 10:42:00,67.6,51.4,30.25,SE,132,2.2,3.5,56,0.00,OVC,,0.00,WeatherDisplay:10.37,2013-05-26 14:42:00,
2013-05-26 10:47:00,67.8,51.1,30.25,SSW,199,0.9,1.1,55,0.00,OVC,,0.00,WeatherDisplay:10.37,2013-05-26 14:47:00,
2013-05-26 10:52:00,68.2,51.4,30.25,East,87,2.0,2.5,55,0.00,OVC,,0.00,WeatherDisplay:10.37,2013-05-26 14:52:00,
2013-05-26 10:57:00,68.5,51.2,30.25,NE,42,2.9,3.5,54,0.00,OVC,,0.00,WeatherDisplay:10.37,2013-05-26 14:57:00,
2013-05-26 11:02:00,68.9,51.6,30.26,ESE,109,3.1,3.5,54,0.00,OVC,,0.00,WeatherDisplay:10.37,2013-05-26 15:02:00,
2013-05-26 11:07:00,69.3,51.9,30.26,SSE,155,3.4,3.5,54,0.00,OVC,,0.00,WeatherDisplay:10.37,2013-05-26 15:07:00,
2013-05-26 11:12:00,69.6,52.2,30.26,East,87,3.2,3.5,54,0.00,OVC,,0.00,WeatherDisplay:10.37,2013-05-26 15:12:00,
2013-05-26 11:17:00,69.6,51.2,30.27,ESE,109,2.0,4.7,52,0.00,OVC,,0.00,WeatherDisplay:10.37,2013-05-26 15:17:00,
2013-05-26 11:22:00,69.6,51.2,30.26,SSE,155,2.8,3.5,52,0.00,OVC,,0.00,WeatherDisplay:10.37,2013-05-26 15:22:00,
2013-05-26 11:27:00,69.8,51.4,30.26,East,87,3.6,3.6,52,0.00,OVC,,0.00,WeatherDisplay:10.37,2013-05-26 15:27:00,
2013-05-26 11:32:00,70.0,51.0,30.25,East,87,2.9,3.5,51,0.00,OVC,,0.00,WeatherDisplay:10.37,2013-05-26 15:32:00,
2013-05-26 11:37:00,70.3,51.9,30.26,SSW,199,1.9,3.5,52,0.00,OVC,,0.00,WeatherDisplay:10.37,2013-05-26 15:37:00,
2013-05-26 11:42:00,71.1,52.0,30.26,East,87,5.1,6.9,51,0.00,OVC,,0.00,WeatherDisplay:10.37,2013-05-26 15:42:00,
2013-05-26 11:47:00,71.8,52.7,30.26,ESE,109,2.4,2.4,51,0.00,OVC,,0.00,WeatherDisplay:10.37,2013-05-26 15:47:00,
2013-05-26 11:52:00,72.7,53.5,30.26,SSE,155,1.9,2.3,51,0.00,OVC,,0.00,WeatherDisplay:10.37,2013-05-26 15:52:00,
2013-05-26 11:57:00,72.7,53.0,30.26,West,267,0.7,1.1,50,0.00,OVC,,0.00,WeatherDisplay:10.37,2013-05-26 15:57:00,
2013-05-26 12:02:00,73.6,53.2,30.26,South,177,1.1,0.0,49,0.00,OVC,,0.00,WeatherDisplay:10.37,2013-05-26 16:02:00,
2013-05-26 12:07:00,74.1,53.7,30.26,SSE,155,2.9,3.6,49,0.00,OVC,,0.00,WeatherDisplay:10.37,2013-05-26 16:07:00,
2013-05-26 12:12:00,74.1,54.3,30.26,ESE,109,1.1,1.1,50,0.00,OVC,,0.00,WeatherDisplay:10.37,2013-05-26 16:12:00,
2013-05-26 12:17:00,75.0,54.0,30.26,SE,132,2.8,3.5,48,0.00,OVC,,0.00,WeatherDisplay:10.37,2013-05-26 16:17:00,
2013-05-26 12:22:00,74.8,53.8,30.26,ESE,109,1.9,2.3,48,0.00,OVC,,0.00,WeatherDisplay:10.37,2013-05-26 16:22:00,
2013-05-26 12:27:00,74.8,53.8,30.26,SSE,155,0.0,1.1,48,0.00,OVC,,0.00,WeatherDisplay:10.37,2013-05-26 16:27:00,
2013-05-26 12:32:00,74.3,53.3,30.26,SW,222,1.3,1.3,48,0.00,OVC,,0.00,WeatherDisplay:10.37,2013-05-26 16:32:00,
2013-05-26 12:37:00,74.1,52.6,30.26,North,357,2.3,2.3,47,0.00,OVC,,0.00,WeatherDisplay:10.37,2013-05-26 16:37:00,
2013-05-26 12:42:00,73.9,52.4,30.26,North,357,0.0,0.0,47,0.00,OVC,,0.00,WeatherDisplay:10.37,2013-05-26 16:42:00,
2013-05-26 12:47:00,73.9,53.0,30.26,East,87,1.3,1.3,48,0.00,OVC,,0.00,WeatherDisplay:10.37,2013-05-26 16:47:00,
2013-05-26 12:52:00,73.6,52.7,30.26,SSE,155,1.3,0.0,48,0.00,OVC,,0.00,WeatherDisplay:10.37,2013-05-26 16:52:00,
2013-05-26 12:57:00,73.8,52.8,30.26,NE,42,0.0,0.0,48,0.00,OVC,,0.00,WeatherDisplay:10.37,2013-05-26 16:57:00,
2013-05-26 13:02:00,73.2,52.3,30.26,ENE,65,1.4,3.5,48,0.00,OVC,,0.00,WeatherDisplay:10.37,2013-05-26 17:02:00,
2013-05-26 13:07:00,73.2,52.3,30.26,NE,42,0.0,0.0,48,0.00,OVC,,0.00,WeatherDisplay:10.37,2013-05-26 17:07:00,
2013-05-26 13:12:00,73.2,52.3,30.26,East,87,0.0,0.0,48,0.00,BKN,,0.00,WeatherDisplay:10.37,2013-05-26 17:12:00,
2013-05-26 13:17:00,73.8,53.4,30.26,SSW,199,2.7,2.7,49,0.00,BKN,,0.00,WeatherDisplay:10.37,2013-05-26 17:17:00,
2013-05-26 13:22:00,74.5,54.1,30.24,SE,132,0.0,3.5,49,0.00,BKN,,0.00,WeatherDisplay:10.37,2013-05-26 17:22:00,
2013-05-26 13:27:00,74.5,53.5,30.24,North,357,3.3,3.3,48,0.00,BKN,,0.00,WeatherDisplay:10.37,2013-05-26 17:27:00,
2013-05-26 13:32:00,74.5,53.5,30.24,ESE,109,1.3,1.3,48,0.00,BKN,,0.00,WeatherDisplay:10.37,2013-05-26 17:32:00,
2013-05-26 13:37:00,75.0,54.0,30.24,SSE,155,4.0,4.0,48,0.00,BKN,,0.00,WeatherDisplay:10.37,2013-05-26 17:37:00,
2013-05-26 13:42:00,76.1,55.0,30.24,ESE,109,3.5,3.5,48,0.00,BKN,,0.00,WeatherDisplay:10.37,2013-05-26 17:42:00,
2013-05-26 13:47:00,76.8,55.6,30.24,WNW,289,2.5,0.0,48,0.00,BKN,,0.00,WeatherDisplay:10.37,2013-05-26 17:47:00,
2013-05-26 13:52:00,76.8,55.6,30.24,WNW,289,2.5,0.0,48,0.00,BKN,,0.00,WeatherDisplay:10.37,2013-05-26 17:52:00,
2013-05-26 13:57:00,76.8,55.6,30.24,ENE,65,0.3,1.1,48,0.00,BKN,,0.00,WeatherDisplay:10.37,2013-05-26 17:57:00,
2013-05-26 14:02:00,76.8,55.6,30.24,NE,42,1.3,2.3,48,0.00,BKN,,0.00,WeatherDisplay:10.37,2013-05-26 18:02:00,
2013-05-26 14:07:00,76.3,54.6,30.24,SSE,155,2.5,2.5,47,0.00,BKN,,0.00,WeatherDisplay:10.37,2013-05-26 18:07:00,
2013-05-26 14:12:00,76.3,54.6,30.22,NE,42,1.1,2.3,47,0.00,BKN,,0.00,WeatherDisplay:10.37,2013-05-26 18:12:00,
2013-05-26 14:17:00,77.5,55.7,30.22,ESE,109,2.2,3.5,47,0.00,BKN,,0.00,WeatherDisplay:10.37,2013-05-26 18:17:00,
2013-05-26 14:22:00,77.5,55.1,30.22,ESE,109,2.2,3.5,46,0.00,BKN,,0.00,WeatherDisplay:10.37,2013-05-26 18:22:00,
2013-05-26 14:27:00,78.6,56.1,30.22,ESE,109,2.2,3.5,46,0.00,BKN,,0.00,WeatherDisplay:10.37,2013-05-26 18:27:00,
2013-05-26 14:32:00,78.6,54.9,30.22,East,87,3.1,3.1,44,0.00,BKN,,0.00,WeatherDisplay:10.37,2013-05-26 18:32:00,
2013-05-26 14:37:00,78.6,53.6,30.21,ESE,109,2.0,2.0,42,0.00,BKN,,0.00,WeatherDisplay:10.37,2013-05-26 18:37:00,
2013-05-26 14:42:00,78.6,53.6,30.21,ESE,109,2.0,2.0,42,0.00,BKN,,0.00,WeatherDisplay:10.37,2013-05-26 18:42:00,
2013-05-26 14:47:00,78.6,52.9,30.21,South,177,1.3,4.6,41,0.00,BKN,,0.00,WeatherDisplay:10.37,2013-05-26 18:47:00,
2013-05-26 14:52:00,78.1,53.8,30.21,SW,222,4.2,4.6,43,0.00,BKN,,0.00,WeatherDisplay:10.37,2013-05-26 18:52:00,
2013-05-26 14:57:00,78.1,54.4,30.21,SSW,199,5.8,5.8,44,0.00,BKN,,0.00,WeatherDisplay:10.37,2013-05-26 18:57:00,
2013-05-26 15:02:00,78.1,54.4,30.21,NNW,335,5.8,5.8,44,0.00,BKN,,0.00,WeatherDisplay:10.37,2013-05-26 19:02:00,
2013-05-26 15:07:00,78.1,53.1,30.21,NNW,335,2.7,3.5,42,0.00,BKN,,0.00,WeatherDisplay:10.37,2013-05-26 19:07:00,
2013-05-26 15:12:00,77.4,53.1,30.21,SSE,155,2.6,3.5,43,0.00,BKN,,0.00,WeatherDisplay:10.37,2013-05-26 19:12:00,
2013-05-26 15:17:00,77.5,53.3,30.21,East,87,1.6,1.6,43,0.00,BKN,,0.00,WeatherDisplay:10.37,2013-05-26 19:17:00,
2013-05-26 15:22:00,77.5,52.6,30.21,SSE,155,1.3,3.5,42,0.00,BKN,,0.00,WeatherDisplay:10.37,2013-05-26 19:22:00,
2013-05-26 15:27:00,77.5,53.9,30.21,NW,312,0.7,1.1,44,0.00,BKN,,0.00,WeatherDisplay:10.37,2013-05-26 19:27:00,
2013-05-26 15:32:00,79.2,55.4,30.21,SW,222,4.9,4.9,44,0.00,BKN,,0.00,WeatherDisplay:10.37,2013-05-26 19:32:00,
2013-05-26 15:37:00,79.5,55.1,30.20,SW,222,1.7,2.3,43,0.00,BKN,,0.00,WeatherDisplay:10.37,2013-05-26 19:37:00,
2013-05-26 15:42:00,79.5,54.4,30.20,SSE,155,2.0,2.3,42,0.00,BKN,,0.00,WeatherDisplay:10.37,2013-05-26 19:42:00,
2013-05-26 15:47:00,80.2,55.7,30.20,West,267,3.1,3.5,43,0.00,BKN,,0.00,WeatherDisplay:10.37,2013-05-26 19:47:00,
2013-05-26 15:52:00,80.8,55.5,30.20,West,267,3.7,4.6,42,0.00,BKN,,0.00,WeatherDisplay:10.37,2013-05-26 19:52:00,
2013-05-26 15:57:00,80.6,54.7,30.20,SW,222,0.1,2.3,41,0.00,BKN,,0.00,WeatherDisplay:10.37,2013-05-26 19:57:00,
2013-05-26 16:02:00,80.6,55.4,30.20,SW,222,3.6,3.6,42,0.00,BKN,,0.00,WeatherDisplay:10.37,2013-05-26 20:02:00,
2013-05-26 16:07:00,81.1,56.5,30.20,SSW,199,1.5,1.5,43,0.00,BKN,,0.00,WeatherDisplay:10.37,2013-05-26 20:07:00,
2013-05-26 16:12:00,81.3,55.4,30.20,SSE,155,0.0,0.0,41,0.00,SCT,,0.00,WeatherDisplay:10.37,2013-05-26 20:12:00,
2013-05-26 16:17:00,81.0,54.4,30.20,NNW,335,3.8,3.8,40,0.00,SCT,,0.00,WeatherDisplay:10.37,2013-05-26 20:17:00,
2013-05-26 16:22:00,79.3,52.9,30.20,WNW,289,0.9,1.1,40,0.00,SCT,,0.00,WeatherDisplay:10.37,2013-05-26 20:22:00,
2013-05-26 16:27:00,79.0,53.3,30.20,NNW,335,1.8,2.3,41,0.00,SCT,,0.00,WeatherDisplay:10.37,2013-05-26 20:27:00,
2013-05-26 16:32:00,78.4,52.1,30.19,WNW,289,0.0,0.0,40,0.00,SCT,,0.00,WeatherDisplay:10.37,2013-05-26 20:32:00,
2013-05-26 16:37:00,78.6,52.9,30.19,SSE,155,0.0,0.0,41,0.00,SCT,,0.00,WeatherDisplay:10.37,2013-05-26 20:37:00,
2013-05-26 16:42:00,78.6,53.6,30.20,ENE,65,0.0,0.0,42,0.00,SCT,,0.00,WeatherDisplay:10.37,2013-05-26 20:42:00,
2013-05-26 16:47:00,78.6,52.9,30.19,NNW,335,2.7,2.7,41,0.00,SCT,,0.00,WeatherDisplay:10.37,2013-05-26 20:47:00,
2013-05-26 16:52:00,78.6,52.9,30.19,North,357,3.2,5.8,41,0.00,SCT,,0.00,WeatherDisplay:10.37,2013-05-26 20:52:00,
2013-05-26 16:57:00,78.4,53.4,30.18,NNE,19,0.0,0.0,42,0.00,SCT,,0.00,WeatherDisplay:10.37,2013-05-26 20:57:00,
2013-05-26 17:02:00,78.4,53.4,30.18,North,357,2.6,2.6,42,0.00,SCT,,0.00,WeatherDisplay:10.37,2013-05-26 21:02:00,
2013-05-26 17:07:00,78.4,53.4,30.18,ENE,65,0.0,0.0,42,0.00,SCT,,0.00,WeatherDisplay:10.37,2013-05-26 21:07:00,
2013-05-26 17:12:00,78.4,52.8,30.18,North,357,3.1,3.5,41,0.00,SCT,,0.00,WeatherDisplay:10.37,2013-05-26 21:12:00,
2013-05-26 17:17:00,78.1,52.5,30.18,East,87,4.7,4.7,41,0.00,SCT,,0.00,WeatherDisplay:10.37,2013-05-26 21:17:00,
2013-05-26 17:22:00,78.1,53.1,30.18,ENE,65,1.2,2.3,42,0.00,SCT,,0.00,WeatherDisplay:10.37,2013-05-26 21:22:00,
2013-05-26 17:27:00,78.1,53.1,30.18,WNW,289,2.0,2.3,42,0.00,SCT,,0.00,WeatherDisplay:10.37,2013-05-26 21:27:00,
2013-05-26 17:32:00,77.7,53.4,30.18,ENE,65,0.0,0.0,43,0.00,SCT,,0.00,WeatherDisplay:10.37,2013-05-26 21:32:00,
2013-05-26 17:37:00,77.7,53.4,30.18,SE,132,2.2,2.3,43,0.00,SCT,,0.00,WeatherDisplay:10.37,2013-05-26 21:37:00,
2013-05-26 17:42:00,77.7,53.4,30.18,SE,132,1.1,1.1,43,0.00,SCT,,0.00,WeatherDisplay:10.37,2013-05-26 21:42:00,
2013-05-26 17:47:00,78.6,54.2,30.18,East,87,3.2,0.0,43,0.00,SCT,,0.00,WeatherDisplay:10.37,2013-05-26 21:47:00,
2013-05-26 17:52:00,78.6,54.2,30.18,West,267,2.9,3.5,43,0.00,SCT,,0.00,WeatherDisplay:10.37,2013-05-26 21:52:00,
2013-05-26 17:57:00,78.6,53.6,30.18,WSW,245,0.0,1.1,42,0.00,SCT,,0.00,WeatherDisplay:10.37,2013-05-26 21:57:00,
2013-05-26 18:02:00,79.0,53.9,30.17,ENE,65,0.5,0.0,42,0.00,SCT,,0.00,WeatherDisplay:10.37,2013-05-26 22:02:00,
2013-05-26 18:07:00,79.0,54.6,30.17,SE,132,3.1,3.5,43,0.00,SCT,,0.00,WeatherDisplay:10.37,2013-05-26 22:07:00,
2013-05-26 18:12:00,79.3,54.3,30.17,SSE,155,0.0,0.0,42,0.00,FEW,,0.00,WeatherDisplay:10.37,2013-05-26 22:12:00,
2013-05-26 18:17:00,79.3,54.3,30.16,NNW,335,0.0,0.0,42,0.00,FEW,,0.00,WeatherDisplay:10.37,2013-05-26 22:17:00,
2013-05-26 18:22:00,79.3,54.9,30.16,East,87,0.0,0.0,43,0.00,FEW,,0.00,WeatherDisplay:10.37,2013-05-26 22:22:00,
2013-05-26 18:27:00,79.0,53.9,30.16,SSW,199,0.0,0.0,42,0.00,FEW,,0.00,WeatherDisplay:10.37,2013-05-26 22:27:00,
2013-05-26 18:32:00,78.8,53.8,30.16,SE,132,0.7,3.5,42,0.00,FEW,,0.00,WeatherDisplay:10.37,2013-05-26 22:32:00,
2013-05-26 18:37:00,78.6,54.2,30.15,ENE,65,2.7,2.7,43,0.00,FEW,,0.00,WeatherDisplay:10.37,2013-05-26 22:37:00,
2013-05-26 18:42:00,78.4,54.1,30.15,ENE,65,1.8,2.3,43,0.00,FEW,,0.00,WeatherDisplay:10.37,2013-05-26 22:42:00,
2013-05-26 18:47:00,78.4,54.1,30.15,ESE,109,0.0,0.0,43,0.00,FEW,,0.00,WeatherDisplay:10.37,2013-05-26 22:47:00,
2013-05-26 18:52:00,77.9,53.6,30.14,ESE,109,1.6,1.6,43,0.00,FEW,,0.00,WeatherDisplay:10.37,2013-05-26 22:52:00,
2013-05-26 18:57:00,77.5,53.3,30.14,SW,222,0.0,0.0,43,0.00,FEW,,0.00,WeatherDisplay:10.37,2013-05-26 22:57:00,
2013-05-26 19:02:00,77.5,53.3,30.14,SSE,155,0.0,0.0,43,0.00,FEW,,0.00,WeatherDisplay:10.37,2013-05-26 23:02:00,
2013-05-26 19:07:00,77.5,53.9,30.14,South,177,1.4,2.3,44,0.00,FEW,,0.00,WeatherDisplay:10.37,2013-05-26 23:07:00,
2013-05-26 19:12:00,77.2,52.9,30.13,East,87,0.0,0.0,43,0.00,FEW,,0.00,WeatherDisplay:10.37,2013-05-26 23:12:00,
2013-05-26 19:17:00,76.8,53.3,30.14,SE,132,0.9,3.5,44,0.00,FEW,,0.00,WeatherDisplay:10.37,2013-05-26 23:17:00,
2013-05-26 19:22:00,76.6,53.1,30.14,South,177,0.0,1.1,44,0.00,FEW,,0.00,WeatherDisplay:10.37,2013-05-26 23:22:00,
2013-05-26 19:27:00,76.6,53.1,30.14,WSW,245,0.0,0.0,44,0.00,FEW,,0.00,WeatherDisplay:10.37,2013-05-26 23:27:00,
2013-05-26 19:32:00,76.6,53.7,30.14,South,177,3.3,3.5,45,0.00,FEW,,0.00,WeatherDisplay:10.37,2013-05-26 23:32:00,
2013-05-26 19:37:00,76.6,53.7,30.13,SSE,155,0.0,0.0,45,0.00,FEW,,0.00,WeatherDisplay:10.37,2013-05-26 23:37:00,
2013-05-26 19:42:00,76.3,53.4,30.14,SSW,199,2.4,3.5,45,0.00,FEW,,0.00,WeatherDisplay:10.37,2013-05-26 23:42:00,
2013-05-26 19:47:00,75.9,53.0,30.14,South,177,0.0,2.3,45,0.00,FEW,,0.00,WeatherDisplay:10.37,2013-05-26 23:47:00,
2013-05-26 19:52:00,75.9,53.0,30.14,East,87,0.0,0.0,45,0.00,FEW,,0.00,WeatherDisplay:10.37,2013-05-26 23:52:00,
2013-05-26 19:57:00,75.7,52.9,30.14,ENE,65,0.0,0.0,45,0.00,FEW,,0.00,WeatherDisplay:10.37,2013-05-26 23:57:00,
2013-05-26 20:02:00,75.2,53.0,30.14,SE,132,0.0,0.0,46,0.00,FEW,,0.00,WeatherDisplay:10.37,2013-05-27 00:02:00,
2013-05-26 20:07:00,75.0,52.8,30.14,South,177,0.0,0.0,46,0.00,FEW,,0.00,WeatherDisplay:10.37,2013-05-27 00:07:00,
2013-05-26 20:12:00,74.8,52.7,30.14,SE,132,0.7,1.1,46,0.00,SCT,,0.00,WeatherDisplay:10.37,2013-05-27 00:12:00,
2013-05-26 20:17:00,74.5,52.9,30.14,SSE,155,0.0,0.0,47,0.00,SCT,,0.00,WeatherDisplay:10.37,2013-05-27 00:17:00,
2013-05-26 20:22:00,74.5,52.9,30.14,South,177,0.0,0.0,47,0.00,SCT,,0.00,WeatherDisplay:10.37,2013-05-27 00:22:00,
2013-05-26 20:27:00,74.5,53.5,30.14,South,177,0.0,0.0,48,0.00,SCT,,0.00,WeatherDisplay:10.37,2013-05-27 00:27:00,
2013-05-26 20:32:00,73.6,52.7,30.15,South,177,0.0,0.0,48,0.00,SCT,,0.00,WeatherDisplay:10.37,2013-05-27 00:32:00,
2013-05-26 20:37:00,73.2,52.3,30.15,SSE,155,0.0,0.0,48,0.00,SCT,,0.00,WeatherDisplay:10.37,2013-05-27 00:37:00,
2013-05-26 20:42:00,72.7,51.9,30.15,SSE,155,0.0,0.0,48,0.00,SCT,,0.00,WeatherDisplay:10.37,2013-05-27 00:42:00,
2013-05-26 20:47:00,72.1,52.5,30.15,SSE,155,0.0,0.0,50,0.00,SCT,,0.00,WeatherDisplay:10.37,2013-05-27 00:47:00,
2013-05-26 20:52:00,72.1,53.0,30.15,ENE,65,0.0,0.0,51,0.00,SCT,,0.00,WeatherDisplay:10.37,2013-05-27 00:52:00,
2013-05-26 20:57:00,72.1,53.5,30.15,ESE,109,0.0,0.0,52,0.00,SCT,,0.00,WeatherDisplay:10.37,2013-05-27 00:57:00,
2013-05-26 21:02:00,70.0,51.5,30.15,ENE,65,0.0,0.0,52,0.00,SCT,,0.00,WeatherDisplay:10.37,2013-05-27 01:02:00,
2013-05-26 21:07:00,69.3,51.9,30.15,ESE,109,0.0,0.0,54,0.00,SCT,,0.00,WeatherDisplay:10.37,2013-05-27 01:07:00,
2013-05-26 21:12:00,69.1,51.7,30.15,ESE,109,0.0,0.0,54,0.00,BKN,,0.00,WeatherDisplay:10.37,2013-05-27 01:12:00,
2013-05-26 21:17:00,69.1,51.7,30.15,ESE,109,0.0,0.0,54,0.00,BKN,,0.00,WeatherDisplay:10.37,2013-05-27 01:17:00,
2013-05-26 21:22:00,67.8,51.1,30.15,ENE,65,0.0,0.0,55,0.00,BKN,,0.00,WeatherDisplay:10.37,2013-05-27 01:22:00,
2013-05-26 21:27:00,67.8,51.5,30.15,ENE,65,0.0,0.0,56,0.00,BKN,,0.00,WeatherDisplay:10.37,2013-05-27 01:27:00,
2013-05-26 21:32:00,67.8,51.5,30.15,ENE,65,0.0,0.0,56,0.00,BKN,,0.00,WeatherDisplay:10.37,2013-05-27 01:32:00,
2013-05-26 21:37:00,67.8,52.0,30.15,NNE,19,0.0,0.0,57,0.00,BKN,,0.00,WeatherDisplay:10.37,2013-05-27 01:37:00,
2013-05-26 21:42:00,67.8,53.0,30.15,ENE,65,0.0,0.0,59,0.00,BKN,,0.00,WeatherDisplay:10.37,2013-05-27 01:42:00,
2013-05-26 21:47:00,66.7,52.0,30.15,NE,42,0.0,0.0,59,0.00,BKN,,0.00,WeatherDisplay:10.37,2013-05-27 01:47:00,
2013-05-26 21:52:00,66.7,52.0,30.15,NE,42,0.0,0.0,59,0.00,BKN,,0.00,WeatherDisplay:10.37,2013-05-27 01:52:00,
2013-05-26 21:58:00,66.6,51.8,30.15,East,87,0.0,0.0,59,0.00,BKN,,0.00,WeatherDisplay:10.37,2013-05-27 01:58:00,
2013-05-26 22:03:00,66.4,52.1,30.15,East,87,0.0,0.0,60,0.00,BKN,,0.00,WeatherDisplay:10.37,2013-05-27 02:03:00,
2013-05-26 22:08:00,66.4,52.1,30.15,SSE,155,0.0,0.0,60,0.00,BKN,,0.00,WeatherDisplay:10.37,2013-05-27 02:08:00,
2013-05-26 22:13:00,66.0,51.7,30.15,NNE,19,0.0,0.0,60,0.00,SCT,,0.00,WeatherDisplay:10.37,2013-05-27 02:13:00,
2013-05-26 22:18:00,66.0,51.7,30.15,ENE,65,0.0,0.0,60,0.00,SCT,,0.00,WeatherDisplay:10.37,2013-05-27 02:18:00,
2013-05-26 22:23:00,66.0,51.7,30.16,East,87,0.0,0.0,60,0.00,SCT,,0.00,WeatherDisplay:10.37,2013-05-27 02:23:00,
2013-05-26 22:28:00,66.0,51.7,30.15,ESE,109,0.0,0.0,60,0.00,SCT,,0.00,WeatherDisplay:10.37,2013-05-27 02:28:00,
2013-05-26 22:33:00,65.8,51.6,30.15,SE,132,0.0,0.0,60,0.00,SCT,,0.00,WeatherDisplay:10.37,2013-05-27 02:33:00,
2013-05-26 22:38:00,65.7,51.4,30.15,East,87,0.0,0.0,60,0.00,SCT,,0.00,WeatherDisplay:10.37,2013-05-27 02:38:00,
2013-05-26 22:43:00,65.5,51.2,30.15,ESE,109,0.0,0.0,60,0.00,SCT,,0.00,WeatherDisplay:10.37,2013-05-27 02:43:00,
2013-05-26 22:48:00,65.5,51.7,30.15,NE,42,0.0,0.0,61,0.00,SCT,,0.00,WeatherDisplay:10.37,2013-05-27 02:48:00,
2013-05-26 22:53:00,65.5,51.7,30.15,WSW,245,0.0,0.0,61,0.00,SCT,,0.00,WeatherDisplay:10.37,2013-05-27 02:53:00,
2013-05-26 22:58:00,65.3,51.5,30.15,ESE,109,0.0,0.0,61,0.00,SCT,,0.00,WeatherDisplay:10.37,2013-05-27 02:58:00,
2013-05-26 23:03:00,65.1,51.3,30.15,North,357,0.0,0.0,61,0.00,SCT,,0.00,WeatherDisplay:10.37,2013-05-27 03:03:00,
2013-05-26 23:08:00,65.1,51.3,30.15,NNE,19,0.0,0.0,61,0.00,SCT,,0.00,WeatherDisplay:10.37,2013-05-27 03:08:00,
2013-05-26 23:13:00,64.9,51.2,30.15,ESE,109,0.0,0.0,61,0.00,FEW,,0.00,WeatherDisplay:10.37,2013-05-27 03:13:00,
2013-05-26 23:18:00,64.9,51.2,30.15,North,357,0.0,0.0,61,0.00,FEW,,0.00,WeatherDisplay:10.37,2013-05-27 03:18:00,
2013-05-26 23:23:00,64.8,51.0,30.15,NE,42,0.0,0.0,61,0.00,FEW,,0.00,WeatherDisplay:10.37,2013-05-27 03:23:00,
2013-05-26 23:28:00,64.6,51.3,30.16,NE,42,0.0,0.0,62,0.00,FEW,,0.00,WeatherDisplay:10.37,2013-05-27 03:28:00,
2013-05-26 23:33:00,64.2,50.9,30.15,NNW,335,0.0,0.0,62,0.00,FEW,,0.00,WeatherDisplay:10.37,2013-05-27 03:33:00,
2013-05-26 23:38:00,64.2,50.9,30.16,NNE,19,0.0,0.0,62,0.00,FEW,,0.00,WeatherDisplay:10.37,2013-05-27 03:38:00,
2013-05-26 23:43:00,64.2,50.9,30.16,ENE,65,0.0,0.0,62,0.00,FEW,,0.00,WeatherDisplay:10.37,2013-05-27 03:43:00,
2013-05-26 23:48:00,64.0,50.8,30.16,ENE,65,0.0,0.0,62,0.00,FEW,,0.00,WeatherDisplay:10.37,2013-05-27 03:48:00,
2013-05-26 23:53:00,64.0,50.8,30.16,ENE,65,0.0,0.0,62,0.00,FEW,,0.00,WeatherDisplay:10.37,2013-05-27 03:53:00,
2013-05-26 23:58:00,63.9,50.6,30.16,ESE,109,0.0,0.0,62,0.00,FEW,,0.00,WeatherDisplay:10.37,2013-05-27 03:58:00,